[[{"header":{"parameterUnit":"m.s-1","parameterCategory":1,"la1":30.2991,"la2":30.254,"lo1":-89.0895,"lo2":-89.0444,"dy":0.0017,"dx":0.0017,"nx":28,"ny":28,"refTime":"2024-04-10T09:00:00:Z","depth":0,"parameterNumber":2,"parameterNumberName":"U-component_of_WINDS"},"data":[0,0,0,0,0,0,0,0,0,0,0,0,0,0,0,0,0,0,0,0,0,0,0,0,0,0,0,0,0,0,0,0,0,0,0,0,0,0,0,0,0,0,0,0,0,0,0,0,0,0,0,0,0,0,0,0,0,0,9.2313,9.2314,0,9.2449,9.245,9.2452,9.2326,9.2321,9.2315,9.2311,9.245,9.2458,9.2466,0,0,0,0,0,0,0,0,0,0,0,0,0,9.1943,9.195,9.2313,9.2314,9.2316,9.2448,9.245,9.2452,9.2327,9.232,9.2314,9.2308,9.2447,9.2457,9.2467,0,0,0,0,0,0,0,0,0,0,0,0,0,9.2093,9.1952,9.2312,9.2269,9.2267,9.2448,9.245,9.2453,9.2328,9.232,9.2313,9.2305,9.2444,9.2456,9.2468,9.2699,0,0,9.2507,9.2513,0,0,0,0,0,0,0,0,9.2085,9.2107,9.2274,9.2273,9.227,9.2362,9.237,9.2535,9.233,9.2305,9.2311,9.2302,9.2427,9.244,9.2483,9.2705,9.2711,9.2508,9.2516,9.2521,9.2525,0,0,0,0,0,0,0,9.2075,9.2101,9.2366,9.2277,9.2274,9.2243,9.2256,9.2401,9.2407,9.2306,9.2297,9.2315,9.2424,9.2471,9.2485,9.2713,9.2508,9.2519,9.2527,9.2532,9.3128,9.3136,0,0,0,0,0,0,9.2069,9.2093,9.2362,9.237,9.2157,9.2255,9.227,9.234,9.2405,9.2407,9.2322,9.2309,9.2453,9.247,9.2489,9.276,9.2521,9.2533,9.254,9.312,9.313,9.3139,0,0,0,0,0,0,9.2062,9.2094,9.2357,9.2229,9.226,9.227,9.235,9.2347,9.2393,9.2416,9.2417,9.2368,9.2447,9.2471,9.2647,9.2763,9.2539,9.255,9.311,9.3123,9.3134,9.3306,0,0,0,0,0,0,9.2052,9.2092,9.2181,9.2232,9.2268,9.2513,9.2357,9.2355,9.2415,9.24,9.246,9.2463,9.2443,9.2629,9.2659,9.2777,9.256,9.31,9.3116,9.313,9.329,9.3322,9.3351,0,0,0,0,0,9.2039,9.2224,9.2186,9.2219,9.2378,9.252,9.254,9.2514,9.2426,9.2513,9.2528,9.2461,9.2746,9.2648,9.2681,9.2804,9.3092,9.3111,9.3129,9.3276,9.3316,9.335,0,0,0,0,0,0,9.2186,9.223,9.2188,9.2396,9.2455,9.2498,9.2609,9.2558,9.2643,9.2625,9.2589,9.2604,9.2789,9.2814,9.2704,9.3029,9.2905,9.2931,9.3005,9.3043,9.3073,9.3061,9.2571,0,0,0,0,0,9.2243,9.2355,9.2387,9.2568,9.2599,9.26,9.266,9.2635,9.2695,9.2719,9.2746,9.2807,9.2909,9.2978,9.3074,9.3294,9.3303,9.3394,9.3425,9.345,9.3472,9.3586,9.3626,9.32,9.32,9.3199,0,0,9.2362,9.2399,9.2472,9.2598,9.2641,9.2756,9.2621,9.275,9.2835,9.2739,9.2905,9.2927,9.2992,9.319,9.3278,9.3216,9.3592,9.3473,9.3493,9.3502,9.3609,9.365,9.3685,9.3212,9.321,9.3208,0,0,9.2635,9.2677,9.283,9.2875,9.2941,9.294,9.2977,9.3028,9.3039,9.3205,9.3134,9.3235,9.3414,9.3462,9.3509,9.38,9.374,9.3833,9.3991,9.4102,9.4136,9.4165,9.4266,9.4302,9.3855,9.3856,9.3856,0,9.2774,9.2946,9.2915,9.3048,9.3104,9.3022,9.3176,9.3221,9.3316,9.3356,9.3287,9.3507,9.3545,9.3751,9.3822,9.3865,9.3903,9.3824,9.4134,9.4163,9.419,9.4285,9.4323,9.3866,9.3865,9.3864,9.3863,0,9.3111,9.3231,9.3347,9.3439,9.3508,9.3652,9.3641,9.3715,9.3684,9.369,9.3858,9.3901,9.4003,9.4051,9.4022,9.4252,9.4211,9.4139,9.4013,9.4242,9.433,9.4367,9.3881,9.3878,9.3874,9.3872,0,0,9.3481,9.3554,9.3596,9.3636,9.3702,9.3794,9.3933,9.4032,9.4094,9.4163,9.4276,9.4428,9.436,9.4415,9.4391,9.449,9.4713,9.4404,9.4405,9.4457,9.4964,9.5016,9.5059,9.4674,9.4681,9.4687,9.4958,0,9.3755,9.3995,9.397,9.4198,9.4307,9.423,9.435,9.4403,9.4412,9.4505,9.4514,9.4622,9.4526,9.4558,9.4652,9.4666,9.4813,9.4646,9.4777,9.4782,9.476,9.5106,9.5162,9.5415,9.4992,9.4998,9.5003,0,9.4106,9.4185,9.4423,9.447,9.4515,9.4624,9.471,9.4801,9.4859,9.4858,9.4919,9.4877,9.5014,9.4888,9.5075,9.4961,9.5014,9.5028,9.5037,9.5046,9.4904,9.512,9.5496,9.5532,9.5058,9.5053,9.5049,0,9.4347,9.4514,9.4677,9.4714,9.4774,9.4851,9.488,9.493,9.4991,9.5067,9.5105,9.5198,9.5247,9.5319,9.5302,9.5212,9.5493,9.5365,9.5493,9.5494,9.5554,9.5549,9.5939,9.5594,9.5593,9.5592,9.5592,0,9.4654,9.4802,9.4786,9.4886,9.5049,9.5019,9.5181,9.52,9.5245,9.5346,9.5287,9.5383,9.5357,9.5452,9.544,9.5594,9.5619,9.562,9.5614,9.5623,9.5623,9.5655,9.5635,9.5602,9.56,9.5598,9.5597,0,9.495,9.4946,9.5118,9.5161,9.5175,9.5292,9.5328,9.5421,9.5425,9.5554,9.5582,9.5588,9.5696,9.5687,9.581,9.5801,9.5991,9.5967,9.5972,9.5965,9.6092,9.6079,9.6513,9.6567,9.619,9.6194,9.6197,0,9.5144,9.5256,9.531,9.5373,9.5407,9.551,9.5571,9.5546,9.5611,9.5684,9.5768,9.5871,9.5951,9.6128,9.6142,9.6234,9.6209,9.6355,9.6223,9.6227,9.6207,9.6199,9.6208,9.638,9.6384,9.6388,9.6391,0,9.5488,9.548,9.557,9.5659,9.5732,9.5801,9.5864,9.5919,9.59,9.5976,9.6086,9.6148,9.6272,9.6373,9.6461,9.6489,9.6436,9.6433,9.6466,9.6475,9.6471,9.6471,9.6039,9.6422,9.6419,9.6417,9.6415,9.6414,9.5737,9.5831,9.5883,9.5984,9.6028,9.6088,9.6176,9.6191,9.6282,9.6379,9.636,9.6482,9.6534,9.6646,9.6683,9.6777,9.6724,9.6774,9.6786,9.6798,9.681,9.6459,9.6793,9.6792,9.6792,9.6791,9.679,0,9.6074,9.6103,9.6197,9.6285,9.6364,9.6309,9.6375,9.6444,9.6552,9.6606,9.6686,9.681,9.6907,9.6929,9.7022,9.7093,9.7071,9.7118,9.7111,9.7117,9.6855,9.6814,9.7134,9.7134,9.7134,9.7134,9.7134,9.7134,9.6259,9.6414,9.6412,9.6588,9.6616,9.6734,9.6776,9.683,9.6872,9.7013,9.7093,9.7107,9.7147,9.7242,9.7328,9.7332,9.7367,9.7423,9.7417,9.7171,9.7136,9.7103,9.7065,9.7432,9.7433,9.7671,9.7674,9.7675]},{"header":{"parameterUnit":"m.s-1","parameterCategory":1,"la1":30.2991,"la2":30.254,"lo1":-89.0895,"lo2":-89.0444,"dy":0.0017,"dx":0.0017,"nx":28,"ny":28,"refTime":"2024-04-10T09:00:00:Z","depth":0,"parameterNumber":3,"parameterNumberName":"V-component_of_WINDS"},"data":[0,0,0,0,0,0,0,0,0,0,0,0,0,0,0,0,0,0,0,0,0,0,0,0,0,0,0,0,0,0,0,0,0,0,0,0,0,0,0,0,0,0,0,0,0,0,0,0,0,0,0,0,0,0,0,0,0,0,3.5867,3.5869,0,3.6003,3.6005,3.6006,3.6005,3.6003,3.6001,3.6,3.6138,3.6144,3.6149,0,0,0,0,0,0,0,0,0,0,0,0,0,3.5605,3.561,3.5867,3.5869,3.587,3.6003,3.6005,3.6007,3.6005,3.6003,3.6001,3.5999,3.6137,3.6143,3.6149,0,0,0,0,0,0,0,0,0,0,0,0,0,3.5728,3.5611,3.5867,3.5886,3.5889,3.6003,3.6005,3.6007,3.6006,3.6003,3.6,3.5998,3.6135,3.6142,3.615,3.6254,0,0,3.6175,3.6178,0,0,0,0,0,0,0,0,3.5721,3.5737,3.5881,3.5885,3.5888,3.5984,3.5963,3.609,3.6006,3.5961,3.6,3.5997,3.6089,3.6101,3.6132,3.6261,3.6266,3.6176,3.6181,3.6184,3.6186,0,0,0,0,0,0,0,3.5712,3.5731,3.5921,3.5883,3.5888,3.5887,3.5902,3.5987,3.6039,3.5965,3.5965,3.5981,3.6091,3.6125,3.6136,3.6269,3.6175,3.6183,3.6188,3.6191,3.6488,3.6491,0,0,0,0,0,0,3.57,3.5724,3.5917,3.5925,3.5796,3.5894,3.591,3.5956,3.6038,3.6048,3.5984,3.5981,3.6112,3.6126,3.614,3.6267,3.6184,3.6192,3.6196,3.6485,3.6489,3.6492,0,0,0,0,0,0,3.5694,3.5717,3.5911,3.5825,3.5849,3.5901,3.5953,3.596,3.5994,3.6052,3.6061,3.6009,3.6111,3.6129,3.6226,3.6272,3.6195,3.6202,3.6481,3.6486,3.649,3.6521,0,0,0,0,0,0,3.5687,3.5715,3.5755,3.5826,3.5854,3.5995,3.5956,3.5965,3.6008,3.6006,3.6078,3.6087,3.611,3.6214,3.6234,3.6282,3.6209,3.6477,3.6483,3.6489,3.6516,3.6526,3.6535,0,0,0,0,0,3.5677,3.5759,3.5757,3.5781,3.5906,3.5997,3.6013,3.6038,3.6012,3.6053,3.6089,3.6085,3.6263,3.6224,3.6246,3.6297,3.6475,3.6482,3.6488,3.6512,3.6524,3.6535,0,0,0,0,0,0,3.5693,3.5768,3.5768,3.5874,3.5929,3.5997,3.6049,3.605,3.6114,3.6109,3.6136,3.6153,3.6249,3.6283,3.6237,3.6401,3.6366,3.6377,3.6376,3.6388,3.6397,3.6388,3.6215,0,0,0,0,0,3.5708,3.5777,3.5839,3.5927,3.5955,3.5997,3.6038,3.6052,3.611,3.6133,3.6177,3.6233,3.6302,3.6347,3.6413,3.6521,3.6536,3.6567,3.6576,3.6583,3.6594,3.6652,3.6667,3.6514,3.6514,3.6514,0,0,3.5742,3.5791,3.5833,3.5931,3.5976,3.6045,3.6017,3.6092,3.6144,3.6145,3.6239,3.6273,3.6337,3.644,3.6487,3.6471,3.6639,3.6592,3.6598,3.6604,3.6661,3.6675,3.6688,3.6519,3.6518,3.6518,0,0,3.5838,3.5882,3.5961,3.6005,3.6073,3.61,3.6119,3.6187,3.6209,3.6304,3.6306,3.6367,3.6485,3.6531,3.657,3.6682,3.6681,3.6703,3.6752,3.6809,3.6821,3.6832,3.6872,3.6886,3.6713,3.6713,3.6713,0,3.5871,3.5977,3.6001,3.6076,3.6119,3.6123,3.6202,3.6244,3.633,3.6359,3.6339,3.6487,3.6531,3.6644,3.6671,3.6702,3.6724,3.6696,3.6817,3.6828,3.6839,3.6877,3.6892,3.6715,3.6715,3.6715,3.6714,0,3.6014,3.6087,3.6142,3.6224,3.6273,3.635,3.6386,3.6432,3.6442,3.6471,3.6567,3.6619,3.6696,3.6724,3.6734,3.6838,3.6826,3.6812,3.6776,3.6855,3.6892,3.6907,3.6718,3.6718,3.6717,3.6716,0,0,3.6125,3.6219,3.6239,3.6276,3.635,3.6407,3.6483,3.6559,3.6598,3.6657,3.6721,3.6821,3.6808,3.6851,3.6866,3.6916,3.7002,3.6896,3.6898,3.6914,3.712,3.7131,3.7147,3.7001,3.7004,3.7006,3.7115,0,3.6229,3.6366,3.6389,3.6509,3.6577,3.658,3.6647,3.6699,3.6728,3.679,3.6822,3.6892,3.6869,3.6895,3.6945,3.6981,3.7044,3.6973,3.7061,3.7064,3.7046,3.7167,3.7179,3.7279,3.7129,3.7132,3.7133,0,3.637,3.6432,3.6558,3.6623,3.6652,3.6712,3.6782,3.6841,3.69,3.6917,3.6966,3.6975,3.7054,3.7014,3.7123,3.7075,3.7112,3.7135,3.7139,3.7149,3.7104,3.718,3.7311,3.7326,3.7156,3.7154,3.7153,0,3.6438,3.6553,3.6644,3.6676,3.6753,3.6795,3.6829,3.6885,3.6929,3.699,3.7018,3.7088,3.7126,3.7179,3.7206,3.7175,3.7313,3.7276,3.733,3.733,3.736,3.7358,3.7499,3.7383,3.7383,3.7382,3.7382,0,3.6553,3.663,3.6676,3.6731,3.6818,3.6843,3.6928,3.6961,3.7011,3.7073,3.7079,3.7137,3.7169,3.7231,3.7253,3.734,3.7357,3.7373,3.7378,3.7373,3.7371,3.7398,3.7392,3.7386,3.7385,3.7385,3.7384,0,3.6644,3.6678,3.6777,3.6842,3.686,3.6921,3.6976,3.703,3.7058,3.7136,3.7156,3.7201,3.7274,3.7306,3.7396,3.7411,3.751,3.751,3.749,3.7492,3.7544,3.7539,3.7709,3.7732,3.76,3.7601,3.7602,0,3.6716,3.6775,3.6846,3.6888,3.6924,3.6991,3.7035,3.7062,3.7108,3.7179,3.7225,3.7298,3.7359,3.7476,3.7516,3.7585,3.7586,3.7641,3.7597,3.7589,3.7587,3.7584,3.759,3.7649,3.765,3.7652,3.7652,0,3.6839,3.6852,3.6916,3.6986,3.7038,3.7095,3.7149,3.7183,3.7218,3.7269,3.7345,3.7392,3.7484,3.7557,3.7628,3.7662,3.7663,3.7666,3.7682,3.7678,3.7664,3.7672,3.7513,3.7662,3.7661,3.766,3.766,3.766,3.6923,3.6975,3.7034,3.7104,3.7148,3.7199,3.7253,3.7288,3.7351,3.7429,3.744,3.7521,3.7577,3.7673,3.771,3.7773,3.7759,3.7783,3.7789,3.7794,3.7797,3.7654,3.7786,3.7785,3.7785,3.7785,3.7785,0,3.7046,3.7083,3.7148,3.7225,3.728,3.7276,3.7336,3.7383,3.7453,3.7506,3.7565,3.7652,3.7722,3.7767,3.7838,3.788,3.7882,3.7897,3.7895,3.7903,3.7805,3.7784,3.7894,3.7894,3.7894,3.7894,3.7894,3.7894,3.7117,3.7206,3.7226,3.7337,3.7374,3.7453,3.7487,3.7534,3.7576,3.7672,3.7731,3.776,3.781,3.7884,3.7948,3.7959,3.7985,3.8002,3.8012,3.7921,3.7909,3.7899,3.7879,3.8007,3.8007,3.8104,3.8105,3.8106]}]]